ATLAS 5 CENTAUR DEB, 44676

Orbit data source: Space-Track

ATLAS 5 CENTAUR DEB, 44676 is space debris in HEO originally from a launch on Wed, 17 Oct 2018 UTC launched from the Air Force Eastern Test Range (AFETR). Debris objects in space refer to the collection of defunct objects orbiting the Earth. Examples of debris include non-operational satellites, rocket bodies, and fragments generated from explosions, collisions, or faulty payload assembly.

Loading next visibility...
Identifier
44676, 2018-079AN
Orbit
HEO
Last TLE update
2 weeks ago
Origin
Manufacturer
ULA Decatur
Mission
Spacecraft
Bus & Motor
Unknown
Mass
Unknown
Launch date (UTC)
2018-10-17 (7 years ago)
Launch vehicle
Unknown
Launch site
Air Force Eastern Test Range (AFETR)
Object type
Payload
Rocket body
Debris
Shape & HBR
Unknown
Radar Cross Section
RCS unknown

Expand to show TLE details & history

TLE from 2 weeks ago
0 ATLAS 5 CENTAUR DEB
1 44676U 18079AN  25112.78985214 -.00000040  00000-0  00000-0 0  9992
2 44676  12.9959  62.1312 4836573 260.0852  44.1776  1.82796239 39196
Epoch: 2025-04-22T18:57Z
Definitive object data (Epoch: 2025-04-22T18:57:23.224Z)
Latitude
-0.00002°
Longitude
-73.35296°
Altitude
17,223.116 km
Speed
4.435 km/s
True Right ascension
04h 08m 18s
True Declination
0° 00' 00"
Sunlit
Object was in daylight at TLE epoch
Visualization TLE readout
Latitude
9.77404°
Longitude
-26.72547°
Altitude
29,682.991 km
Speed
2.828 km/s
Apparent Right ascension
06h 48m 44s
Apparent Declination
3° 04' 19"
Sunlit
Object is in daylight
Visualization observer readout
Local Sidereal Time
15:06:44
Azimuth
296.149° NW
Elevation
-23.542°
Doppler factor
1
Orbital elements
Apogee altitude
35,545.333 km
Perigee altitude
8,212.077 km
Semi-major axis
28,256.842 km
Eccentricity
0.4836573
Inclination
12.9959°
RAAN
62.1312°
Arg. of periapsis
260.0852°
True anomaly
100.04416°
Mean anomaly
44.1776°
Eccentric anomaly
70.26078°
Mean motion
0.45694 °/min
BSTAR
Unknown
Orbital period
787.85 mins
Loading maneuver chart data...
Loading SW <> Apogee altitude chart data...

ATLAS 5 CENTAUR DEB Visibility forecast

Observer location: undefined°, undefined°

Span
Click to sort rows by Start time (UTC) header in descending order
Start Az.
Max El. time (UTC)
Max El. Az.
Max El.
End time (UTC)
End Az.
695 mins2025-05-09 16:41:48.777Z203.725° SW2025-05-10 01:02:48.777Z127.81° SE35.366°2025-05-10 04:16:48.777Z116.195° SE
|